Time,TemperatureF,DewpointF,PressureIn,WindDirection,WindDirectionDegrees,WindSpeedMPH,WindSpeedGustMPH,Humidity,HourlyPrecipIn,Conditions,Clouds,dailyrainin,SoftwareType,DateUTC
2013-01-29 00:04:00,29.0,29.0,29.84,SE,135,0.0,0.0,100,0.00,,,0.00,TxWx,2013-01-29 05:04:00,
2013-01-29 00:09:00,29.0,29.0,29.84,SE,135,0.0,0.0,100,0.00,,,0.00,TxWx,2013-01-29 05:09:00,
2013-01-29 00:14:00,29.0,29.0,29.84,SSE,157,0.0,0.0,100,0.00,,,0.00,TxWx,2013-01-29 05:14:00,
2013-01-29 00:19:00,29.0,29.0,29.84,ESE,112,0.0,0.0,100,0.00,,,0.00,TxWx,2013-01-29 05:19:00,
2013-01-29 00:24:00,29.0,29.0,29.84,SE,135,0.0,0.0,100,0.00,,,0.00,TxWx,2013-01-29 05:24:00,
2013-01-29 00:29:00,29.0,29.0,29.84,SE,135,0.0,0.0,100,0.00,,,0.00,TxWx,2013-01-29 05:29:00,
2013-01-29 00:35:00,29.0,29.0,29.84,ESE,112,0.0,0.0,100,0.00,,,0.00,TxWx,2013-01-29 05:35:00,
2013-01-29 00:40:00,29.0,29.0,29.84,ESE,112,0.0,0.0,100,0.00,,,0.00,TxWx,2013-01-29 05:40:00,
2013-01-29 00:45:00,29.0,29.0,29.84,SSE,157,0.0,0.0,100,0.00,,,0.00,TxWx,2013-01-29 05:45:00,
2013-01-29 00:50:00,29.0,29.0,29.84,ESE,112,0.0,0.0,100,0.00,,,0.00,TxWx,2013-01-29 05:50:00,
2013-01-29 00:55:00,29.0,29.0,29.84,ESE,112,0.0,0.0,100,0.00,,,0.00,TxWx,2013-01-29 05:55:00,
2013-01-29 01:00:00,29.0,29.0,29.84,ESE,112,0.0,0.0,100,0.00,,,0.00,TxWx,2013-01-29 06:00:00,
2013-01-29 01:05:00,29.0,29.0,29.84,ESE,112,0.0,0.0,100,0.00,,,0.00,TxWx,2013-01-29 06:05:00,
2013-01-29 01:10:00,29.0,29.0,29.84,ESE,112,0.0,0.0,100,0.00,,,0.00,TxWx,2013-01-29 06:10:00,
2013-01-29 01:17:00,29.0,29.0,29.84,ESE,112,0.0,0.0,100,0.00,,,0.00,TxWx,2013-01-29 06:17:00,
2013-01-29 01:22:00,29.0,29.0,29.85,SSE,157,0.0,0.0,100,0.00,,,0.00,TxWx,2013-01-29 06:22:00,
2013-01-29 01:27:00,29.0,29.0,29.85,SE,135,0.0,0.0,100,0.00,,,0.00,TxWx,2013-01-29 06:27:00,
2013-01-29 01:32:00,29.0,29.0,29.85,ESE,112,0.0,0.0,100,0.00,,,0.00,TxWx,2013-01-29 06:32:00,
2013-01-29 01:37:00,29.0,29.0,29.86,SE,135,0.0,0.0,100,0.00,,,0.00,TxWx,2013-01-29 06:37:00,
2013-01-29 01:42:00,29.0,29.0,29.86,SSE,157,0.0,0.0,100,0.00,,,0.00,TxWx,2013-01-29 06:42:00,
2013-01-29 01:47:00,29.0,29.0,29.86,ESE,112,0.0,0.0,100,0.00,,,0.00,TxWx,2013-01-29 06:47:00,
2013-01-29 01:52:00,29.0,29.0,29.86,SSE,157,0.0,0.0,100,0.00,,,0.00,TxWx,2013-01-29 06:52:00,
2013-01-29 01:57:00,29.0,29.0,29.86,SSE,157,0.0,0.0,100,0.00,,,0.00,TxWx,2013-01-29 06:57:00,
2013-01-29 02:03:00,29.0,29.0,29.86,ESE,112,0.0,0.0,100,0.00,,,0.00,TxWx,2013-01-29 07:03:00,
2013-01-29 02:08:00,29.0,29.0,29.87,NNW,337,0.0,0.0,100,0.00,,,0.00,TxWx,2013-01-29 07:08:00,
2013-01-29 02:13:00,28.0,28.0,29.87,NNE,22,0.0,0.0,100,0.00,,,0.00,TxWx,2013-01-29 07:13:00,
2013-01-29 02:19:00,28.0,28.0,29.88,NE,45,0.0,0.0,100,0.00,,,0.00,TxWx,2013-01-29 07:19:00,
2013-01-29 02:25:00,29.0,29.0,29.87,ESE,112,0.0,0.0,100,0.00,,,0.00,TxWx,2013-01-29 07:25:00,
2013-01-29 02:30:00,29.0,29.0,29.87,ESE,112,0.0,0.0,100,0.00,,,0.00,TxWx,2013-01-29 07:30:00,
2013-01-29 02:35:00,30.0,30.0,29.87,East,90,0.0,0.0,100,0.00,,,0.00,TxWx,2013-01-29 07:35:00,
2013-01-29 02:40:00,29.0,29.0,29.88,NW,315,0.0,0.0,100,0.00,,,0.00,TxWx,2013-01-29 07:40:00,
2013-01-29 02:45:00,28.0,28.0,29.88,ENE,67,0.0,0.0,100,0.00,,,0.00,TxWx,2013-01-29 07:45:00,
2013-01-29 02:50:00,29.0,29.0,29.87,ESE,112,0.0,0.0,100,0.00,,,0.00,TxWx,2013-01-29 07:50:00,
2013-01-29 02:55:00,29.0,29.0,29.88,ESE,112,0.0,0.0,100,0.00,,,0.00,TxWx,2013-01-29 07:55:00,
2013-01-29 03:00:00,29.0,29.0,29.88,West,270,0.0,0.0,100,0.00,,,0.00,TxWx,2013-01-29 08:00:00,
2013-01-29 03:01:00,30.0,30.0,29.96,SSW,202,2.0,3.0,100,0.00,,,0.00,TxWx,2013-01-29 08:01:00,
2013-01-29 03:02:00,30.0,30.0,29.96,SSW,202,1.0,2.0,100,0.00,,,0.00,TxWx,2013-01-29 08:02:00,
2013-01-29 03:03:00,30.0,30.0,29.96,South,180,1.0,2.0,100,0.00,,,0.00,TxWx,2013-01-29 08:03:00,
2013-01-29 03:04:00,30.0,30.0,29.96,SSE,157,0.0,0.0,100,0.00,,,0.00,TxWx,2013-01-29 08:04:00,
2013-01-29 03:05:00,28.0,28.0,29.88,NW,315,0.0,0.0,100,0.00,,,0.00,TxWx,2013-01-29 08:05:00,
2013-01-29 03:06:00,30.0,30.0,29.96,South,180,0.0,0.0,100,0.00,,,0.00,TxWx,2013-01-29 08:06:00,
2013-01-29 03:10:00,28.0,28.0,29.89,WNW,292,0.0,0.0,100,0.00,,,0.00,TxWx,2013-01-29 08:10:00,
2013-01-29 03:15:00,28.0,28.0,29.89,NNW,337,0.0,0.0,100,0.00,,,0.00,TxWx,2013-01-29 08:15:00,
2013-01-29 03:20:00,28.0,28.0,29.89,South,180,0.0,0.0,100,0.00,,,0.00,TxWx,2013-01-29 08:20:00,
2013-01-29 03:25:00,28.0,28.0,29.89,NW,315,0.0,0.0,100,0.00,,,0.00,TxWx,2013-01-29 08:25:00,
2013-01-29 03:31:00,28.0,28.0,29.89,ENE,67,0.0,0.0,100,0.00,,,0.00,TxWx,2013-01-29 08:31:00,
2013-01-29 03:36:00,29.0,29.0,29.89,NE,45,0.0,0.0,100,0.00,,,0.00,TxWx,2013-01-29 08:36:00,
2013-01-29 03:41:00,28.0,28.0,29.89,NW,315,0.0,0.0,100,0.00,,,0.00,TxWx,2013-01-29 08:41:00,
2013-01-29 03:46:00,28.0,28.0,29.90,NNE,22,0.0,0.0,100,0.00,,,0.00,TxWx,2013-01-29 08:46:00,
2013-01-29 03:51:00,28.0,28.0,29.89,North,0,0.0,0.0,100,0.00,,,0.00,TxWx,2013-01-29 08:51:00,
2013-01-29 03:56:00,28.0,28.0,29.89,North,0,0.0,0.0,100,0.00,,,0.00,TxWx,2013-01-29 08:56:00,
2013-01-29 04:01:00,28.0,28.0,29.89,NNW,337,0.0,0.0,100,0.00,,,0.00,TxWx,2013-01-29 09:01:00,
2013-01-29 04:06:00,27.0,27.0,29.90,NE,45,0.0,0.0,100,0.00,,,0.00,TxWx,2013-01-29 09:06:00,
2013-01-29 04:11:00,28.0,28.0,29.89,SSE,157,0.0,0.0,100,0.00,,,0.00,TxWx,2013-01-29 09:11:00,
2013-01-29 04:16:00,29.0,29.0,29.90,NW,315,0.0,0.0,100,0.00,,,0.00,TxWx,2013-01-29 09:16:00,
2013-01-29 04:21:00,27.0,27.0,29.90,NNE,22,0.0,0.0,100,0.00,,,0.00,TxWx,2013-01-29 09:21:00,
2013-01-29 04:26:00,27.0,27.0,29.90,North,0,0.0,0.0,100,0.00,,,0.00,TxWx,2013-01-29 09:26:00,
2013-01-29 04:31:00,27.0,27.0,29.90,NNE,22,0.0,0.0,100,0.00,,,0.00,TxWx,2013-01-29 09:31:00,
2013-01-29 04:36:00,27.0,27.0,29.91,NNW,337,0.0,0.0,100,0.00,,,0.00,TxWx,2013-01-29 09:36:00,
2013-01-29 04:42:00,27.0,27.0,29.91,North,0,0.0,0.0,100,0.00,,,0.00,TxWx,2013-01-29 09:42:00,
2013-01-29 04:47:00,27.0,27.0,29.91,NNE,22,0.0,0.0,100,0.00,,,0.00,TxWx,2013-01-29 09:47:00,
2013-01-29 04:52:00,27.0,27.0,29.91,NNW,337,0.0,0.0,100,0.00,,,0.00,TxWx,2013-01-29 09:52:00,
2013-01-29 04:57:00,27.0,27.0,29.92,NW,315,0.0,0.0,100,0.00,,,0.00,TxWx,2013-01-29 09:57:00,
2013-01-29 05:02:00,26.0,26.0,29.92,NNW,337,0.0,0.0,100,0.00,,,0.00,TxWx,2013-01-29 10:02:00,
2013-01-29 05:07:00,26.0,26.0,29.92,NE,45,0.0,0.0,100,0.00,,,0.00,TxWx,2013-01-29 10:07:00,
2013-01-29 05:12:00,27.0,27.0,29.92,NNW,337,0.0,0.0,100,0.00,,,0.00,TxWx,2013-01-29 10:12:00,
2013-01-29 05:17:00,27.0,27.0,29.92,NNE,22,0.0,0.0,100,0.00,,,0.00,TxWx,2013-01-29 10:17:00,
2013-01-29 05:22:00,28.0,28.0,29.92,NNE,22,0.0,0.0,100,0.00,,,0.00,TxWx,2013-01-29 10:22:00,
2013-01-29 05:27:00,28.0,28.0,29.92,East,90,0.0,0.0,100,0.00,,,0.00,TxWx,2013-01-29 10:27:00,
2013-01-29 05:32:00,28.0,28.0,29.92,NE,45,0.0,0.0,100,0.00,,,0.00,TxWx,2013-01-29 10:32:00,
2013-01-29 05:37:00,28.0,28.0,29.93,NE,45,0.0,0.0,100,0.00,,,0.00,TxWx,2013-01-29 10:37:00,
2013-01-29 05:42:00,28.0,28.0,29.93,NW,315,0.0,0.0,100,0.00,,,0.00,TxWx,2013-01-29 10:42:00,
2013-01-29 05:47:00,28.0,28.0,29.93,NNE,22,0.0,0.0,100,0.00,,,0.00,TxWx,2013-01-29 10:47:00,
2013-01-29 05:53:00,28.0,28.0,29.94,NE,45,0.0,0.0,100,0.00,,,0.00,TxWx,2013-01-29 10:53:00,
2013-01-29 05:58:00,27.0,27.0,29.94,SSE,157,0.0,0.0,100,0.00,,,0.00,TxWx,2013-01-29 10:58:00,
2013-01-29 06:03:00,27.0,27.0,29.94,NE,45,0.0,0.0,100,0.00,,,0.00,TxWx,2013-01-29 11:03:00,
2013-01-29 06:08:00,27.0,27.0,29.94,ENE,67,0.0,0.0,100,0.00,,,0.00,TxWx,2013-01-29 11:08:00,
2013-01-29 06:13:00,27.0,27.0,29.94,ESE,112,0.0,0.0,100,0.00,,,0.00,TxWx,2013-01-29 11:13:00,
2013-01-29 06:15:00,34.0,33.0,29.90,ESE,112,8.0,8.0,100,0.60,,,0.04,TxWx,2013-01-29 11:15:00,
2013-01-29 06:16:00,34.0,34.0,29.90,ESE,112,6.0,8.0,100,0.60,,,0.04,TxWx,2013-01-29 11:16:00,
2013-01-29 06:17:00,34.0,34.0,29.91,East,90,5.0,5.0,100,0.60,,,0.04,TxWx,2013-01-29 11:17:00,
2013-01-29 06:18:00,28.0,28.0,29.94,ESE,112,0.0,0.0,100,0.00,,,0.00,TxWx,2013-01-29 11:18:00,
2013-01-29 06:23:00,27.0,27.0,29.94,SE,135,0.0,0.0,100,0.00,,,0.00,TxWx,2013-01-29 11:23:00,
2013-01-29 06:28:00,27.0,27.0,29.95,South,180,0.0,0.0,100,0.00,,,0.00,TxWx,2013-01-29 11:28:00,
2013-01-29 06:33:00,27.0,27.0,29.95,South,180,0.0,0.0,100,0.00,,,0.00,TxWx,2013-01-29 11:33:00,
2013-01-29 06:38:00,27.0,27.0,29.96,SSE,157,0.0,0.0,100,0.00,,,0.00,TxWx,2013-01-29 11:38:00,
2013-01-29 06:43:00,27.0,27.0,29.96,South,180,0.0,0.0,100,0.00,,,0.00,TxWx,2013-01-29 11:43:00,
2013-01-29 06:48:00,26.0,26.0,29.96,SSE,157,0.0,0.0,100,0.00,,,0.00,TxWx,2013-01-29 11:48:00,
2013-01-29 06:53:00,26.0,26.0,29.96,SSE,157,0.0,0.0,100,0.00,,,0.00,TxWx,2013-01-29 11:53:00,
2013-01-29 06:58:00,25.0,25.0,29.97,SSW,202,0.0,0.0,100,0.00,,,0.00,TxWx,2013-01-29 11:58:00,
2013-01-29 07:04:00,24.0,24.0,29.97,NNE,22,0.0,0.0,100,0.00,,,0.00,TxWx,2013-01-29 12:04:00,
2013-01-29 07:09:00,24.0,24.0,29.97,North,0,0.0,0.0,100,0.00,,,0.00,TxWx,2013-01-29 12:09:00,
2013-01-29 07:14:00,23.0,23.0,29.97,North,0,0.0,0.0,100,0.00,,,0.00,TxWx,2013-01-29 12:14:00,
2013-01-29 07:19:00,23.0,23.0,29.97,NNE,22,0.0,0.0,100,0.00,,,0.00,TxWx,2013-01-29 12:19:00,
2013-01-29 07:24:00,24.0,24.0,29.98,NE,45,0.0,0.0,100,0.00,,,0.00,TxWx,2013-01-29 12:24:00,
2013-01-29 07:29:00,25.0,25.0,29.98,ESE,112,0.0,0.0,100,0.00,,,0.00,TxWx,2013-01-29 12:29:00,
2013-01-29 07:34:00,27.0,27.0,29.99,SSE,157,0.0,0.0,100,0.00,,,0.00,TxWx,2013-01-29 12:34:00,
2013-01-29 07:39:00,27.0,27.0,29.99,South,180,0.0,0.0,100,0.00,,,0.00,TxWx,2013-01-29 12:39:00,
2013-01-29 07:44:00,28.0,28.0,30.00,SSW,202,0.0,0.0,100,0.00,,,0.00,TxWx,2013-01-29 12:44:00,
2013-01-29 07:49:00,27.0,27.0,30.00,SSW,202,0.0,0.0,100,0.00,,,0.00,TxWx,2013-01-29 12:49:00,
2013-01-29 07:54:00,28.0,28.0,29.99,SE,135,0.0,0.0,100,0.00,,,0.00,TxWx,2013-01-29 12:54:00,
2013-01-29 07:59:00,27.0,27.0,29.98,SE,135,0.0,0.0,100,0.00,,,0.00,TxWx,2013-01-29 12:59:00,
2013-01-29 08:04:00,28.0,28.0,29.97,SE,135,0.0,0.0,100,0.00,,,0.00,TxWx,2013-01-29 13:04:00,
2013-01-29 08:10:00,27.0,27.0,29.97,ESE,112,0.0,0.0,100,0.00,,,0.00,TxWx,2013-01-29 13:10:00,
2013-01-29 08:15:00,27.0,27.0,29.97,East,90,0.0,0.0,100,0.00,,,0.00,TxWx,2013-01-29 13:15:00,
2013-01-29 08:20:00,27.0,27.0,29.97,East,90,0.0,0.0,100,0.00,,,0.00,TxWx,2013-01-29 13:20:00,
2013-01-29 08:25:00,27.0,27.0,29.96,East,90,0.0,0.0,100,0.00,,,0.00,TxWx,2013-01-29 13:25:00,
2013-01-29 08:30:00,28.0,28.0,29.96,ESE,112,0.0,0.0,100,0.00,,,0.00,TxWx,2013-01-29 13:30:00,
2013-01-29 08:35:00,28.0,28.0,29.96,East,90,0.0,0.0,100,0.00,,,0.00,TxWx,2013-01-29 13:35:00,
2013-01-29 08:40:00,28.0,28.0,29.96,East,90,0.0,0.0,100,0.00,,,0.00,TxWx,2013-01-29 13:40:00,
2013-01-29 08:45:00,28.0,28.0,29.97,ESE,112,0.0,0.0,100,0.00,,,0.00,TxWx,2013-01-29 13:45:00,
2013-01-29 08:50:00,29.0,29.0,29.97,SSE,157,0.0,0.0,100,0.00,,,0.00,TxWx,2013-01-29 13:50:00,
2013-01-29 08:55:00,29.0,29.0,29.97,South,180,0.0,0.0,100,0.00,,,0.00,TxWx,2013-01-29 13:55:00,
2013-01-29 09:00:00,29.0,29.0,29.97,WSW,247,0.0,0.0,100,0.00,,,0.00,TxWx,2013-01-29 14:00:00,
2013-01-29 09:05:00,28.0,28.0,29.98,WSW,247,0.0,0.0,100,0.00,,,0.00,TxWx,2013-01-29 14:05:00,
2013-01-29 09:11:00,27.0,27.0,29.98,SSW,202,0.0,0.0,100,0.00,,,0.00,TxWx,2013-01-29 14:11:00,
2013-01-29 09:16:00,27.0,27.0,29.98,West,270,0.0,0.0,100,0.00,,,0.00,TxWx,2013-01-29 14:16:00,
2013-01-29 09:21:00,27.0,27.0,29.98,South,180,0.0,0.0,100,0.00,,,0.00,TxWx,2013-01-29 14:21:00,
2013-01-29 09:26:00,27.0,27.0,29.98,South,180,0.0,0.0,100,0.00,,,0.00,TxWx,2013-01-29 14:26:00,
2013-01-29 09:31:00,28.0,28.0,29.98,East,90,0.0,0.0,100,0.00,,,0.00,TxWx,2013-01-29 14:31:00,
2013-01-29 09:36:00,29.0,29.0,29.97,SSE,157,0.0,0.0,100,0.00,,,0.00,TxWx,2013-01-29 14:36:00,
2013-01-29 09:41:00,29.0,29.0,29.98,South,180,0.0,0.0,100,0.00,,,0.00,TxWx,2013-01-29 14:41:00,
2013-01-29 09:46:00,29.0,29.0,29.98,SSE,157,0.0,0.0,100,0.00,,,0.00,TxWx,2013-01-29 14:46:00,
2013-01-29 09:51:00,29.0,29.0,29.99,SW,225,0.0,0.0,100,0.00,,,0.00,TxWx,2013-01-29 14:51:00,
2013-01-29 09:56:00,29.0,29.0,29.99,SSW,202,0.0,0.0,100,0.00,,,0.00,TxWx,2013-01-29 14:56:00,
2013-01-29 10:01:00,29.0,29.0,29.99,SSW,202,0.0,0.0,100,0.00,,,0.00,TxWx,2013-01-29 15:01:00,
2013-01-29 10:06:00,29.0,29.0,30.00,SSW,202,0.0,0.0,100,0.00,,,0.00,TxWx,2013-01-29 15:06:00,
2013-01-29 10:12:00,28.0,28.0,30.00,SSW,202,0.0,0.0,100,0.00,,,0.00,TxWx,2013-01-29 15:12:00,
2013-01-29 10:17:00,28.0,28.0,30.00,SSW,202,0.0,0.0,100,0.00,,,0.00,TxWx,2013-01-29 15:17:00,
2013-01-29 10:22:00,27.0,27.0,30.01,SSW,202,0.0,0.0,100,0.00,,,0.00,TxWx,2013-01-29 15:22:00,
2013-01-29 10:27:00,27.0,27.0,30.01,SSW,202,0.0,0.0,100,0.00,,,0.00,TxWx,2013-01-29 15:27:00,
2013-01-29 10:32:00,27.0,27.0,30.01,SSW,202,0.0,0.0,100,0.00,,,0.00,TxWx,2013-01-29 15:32:00,
2013-01-29 10:37:00,27.0,27.0,30.01,SSW,202,0.0,0.0,100,0.00,,,0.00,TxWx,2013-01-29 15:37:00,
2013-01-29 10:42:00,28.0,28.0,30.00,SSW,202,0.0,0.0,100,0.00,,,0.00,TxWx,2013-01-29 15:42:00,
2013-01-29 10:47:00,28.0,28.0,30.00,SSW,202,0.0,0.0,100,0.00,,,0.00,TxWx,2013-01-29 15:47:00,
2013-01-29 10:52:00,28.0,28.0,30.00,SSW,202,0.0,0.0,100,0.00,,,0.00,TxWx,2013-01-29 15:52:00,
2013-01-29 10:57:00,28.0,28.0,30.00,SSW,202,0.0,0.0,100,0.00,,,0.00,TxWx,2013-01-29 15:57:00,
2013-01-29 11:02:00,28.0,28.0,30.00,SSW,202,0.0,0.0,100,0.00,,,0.00,TxWx,2013-01-29 16:02:00,
2013-01-29 11:07:00,28.0,28.0,30.00,SSW,202,0.0,0.0,100,0.00,,,0.00,TxWx,2013-01-29 16:07:00,
2013-01-29 11:12:00,28.0,28.0,30.01,SSW,202,0.0,0.0,100,0.00,,,0.00,TxWx,2013-01-29 16:12:00,
2013-01-29 11:18:00,28.0,28.0,30.01,SSW,202,0.0,0.0,100,0.00,,,0.00,TxWx,2013-01-29 16:18:00,
2013-01-29 11:23:00,28.0,28.0,30.01,SSW,202,0.0,0.0,100,0.00,,,0.00,TxWx,2013-01-29 16:23:00,
2013-01-29 11:28:00,29.0,29.0,30.00,SSW,202,0.0,0.0,100,0.00,,,0.00,TxWx,2013-01-29 16:28:00,
2013-01-29 11:33:00,30.0,30.0,30.00,SSW,202,0.0,0.0,100,0.00,,,0.00,TxWx,2013-01-29 16:33:00,
2013-01-29 11:38:00,30.0,30.0,29.99,SSW,202,0.0,0.0,100,0.00,,,0.00,TxWx,2013-01-29 16:38:00,
2013-01-29 11:43:00,31.0,31.0,29.99,SSW,202,0.0,0.0,100,0.00,,,0.00,TxWx,2013-01-29 16:43:00,
2013-01-29 11:48:00,31.0,31.0,29.98,SSW,202,0.0,0.0,100,0.00,,,0.00,TxWx,2013-01-29 16:48:00,
2013-01-29 11:53:00,31.0,31.0,29.98,SSW,202,0.0,0.0,100,0.00,,,0.00,TxWx,2013-01-29 16:53:00,
2013-01-29 11:58:00,31.0,31.0,29.97,SSW,202,0.0,0.0,100,0.00,,,0.00,TxWx,2013-01-29 16:58:00,
2013-01-29 12:03:00,32.0,32.0,29.97,ESE,112,0.0,0.0,100,0.00,,,0.00,TxWx,2013-01-29 17:03:00,
2013-01-29 12:08:00,32.0,32.0,29.97,SE,135,0.0,0.0,100,0.00,,,0.00,TxWx,2013-01-29 17:08:00,
2013-01-29 12:13:00,32.0,32.0,29.97,SSW,202,0.0,0.0,100,0.00,,,0.00,TxWx,2013-01-29 17:13:00,
2013-01-29 12:18:00,31.0,31.0,29.96,WNW,292,2.0,2.0,100,0.00,,,0.00,TxWx,2013-01-29 17:18:00,
2013-01-29 12:24:00,31.0,31.0,29.96,WNW,292,2.0,2.0,100,0.00,,,0.00,TxWx,2013-01-29 17:24:00,
2013-01-29 12:29:00,31.0,31.0,29.96,NW,315,2.0,2.0,100,0.00,,,0.00,TxWx,2013-01-29 17:29:00,
2013-01-29 12:34:00,30.0,30.0,29.96,NNW,337,1.0,1.0,100,0.00,,,0.00,TxWx,2013-01-29 17:34:00,
2013-01-29 12:39:00,30.0,30.0,29.97,SW,225,3.0,3.0,100,0.00,,,0.00,TxWx,2013-01-29 17:39:00,
2013-01-29 12:44:00,30.0,30.0,29.97,NW,315,2.0,2.0,100,0.00,,,0.00,TxWx,2013-01-29 17:44:00,
2013-01-29 12:49:00,30.0,30.0,29.96,WSW,247,1.0,2.0,100,0.00,,,0.00,TxWx,2013-01-29 17:49:00,
2013-01-29 12:54:00,30.0,30.0,29.96,SSW,202,0.0,1.0,100,0.00,,,0.00,TxWx,2013-01-29 17:54:00,
2013-01-29 12:59:00,30.0,30.0,29.96,SSW,202,2.0,3.0,100,0.00,,,0.00,TxWx,2013-01-29 17:59:00,
2013-01-29 13:06:00,30.0,30.0,29.96,SSW,202,0.0,0.0,100,0.00,,,0.00,TxWx,2013-01-29 18:06:00,
2013-01-29 13:11:00,30.0,30.0,29.95,SSE,157,0.0,0.0,100,0.00,,,0.00,TxWx,2013-01-29 18:11:00,
2013-01-29 13:16:00,30.0,30.0,29.95,South,180,1.0,1.0,100,0.00,,,0.00,TxWx,2013-01-29 18:16:00,
2013-01-29 13:21:00,31.0,31.0,29.95,ESE,112,2.0,2.0,100,0.00,,,0.00,TxWx,2013-01-29 18:21:00,
2013-01-29 13:26:00,31.0,31.0,29.95,SSW,202,2.0,2.0,100,0.00,,,0.00,TxWx,2013-01-29 18:26:00,
2013-01-29 13:31:00,30.0,30.0,29.95,SW,225,3.0,3.0,100,0.00,,,0.00,TxWx,2013-01-29 18:31:00,
2013-01-29 13:36:00,30.0,30.0,29.95,SSW,202,1.0,2.0,100,0.00,,,0.00,TxWx,2013-01-29 18:36:00,
2013-01-29 13:42:00,30.0,30.0,29.95,South,180,1.0,2.0,100,0.00,,,0.00,TxWx,2013-01-29 18:42:00,
2013-01-29 13:47:00,30.0,30.0,29.95,SE,135,2.0,3.0,100,0.00,,,0.00,TxWx,2013-01-29 18:47:00,
2013-01-29 13:52:00,30.0,30.0,29.95,SSW,202,1.0,2.0,100,0.00,,,0.00,TxWx,2013-01-29 18:52:00,
2013-01-29 13:57:00,30.0,30.0,29.95,South,180,2.0,3.0,100,0.00,,,0.00,TxWx,2013-01-29 18:57:00,
2013-01-29 14:00:00,37.0,37.0,29.86,SE,135,22.0,22.0,100,0.00,,,0.00,TxWx,2013-01-29 19:00:00,
2013-01-29 14:02:00,30.0,30.0,29.95,SSE,157,1.0,1.0,100,0.00,,,0.00,TxWx,2013-01-29 19:02:00,
2013-01-29 14:03:00,37.0,37.0,29.85,ESE,112,21.0,27.0,100,0.00,,,0.00,TxWx,2013-01-29 19:03:00,
2013-01-29 14:04:00,37.0,37.0,29.86,SE,135,14.0,19.0,100,0.00,,,0.00,TxWx,2013-01-29 19:04:00,
2013-01-29 14:05:00,37.0,37.0,29.86,SSE,157,16.0,21.0,100,0.00,,,0.00,TxWx,2013-01-29 19:05:00,
2013-01-29 14:06:00,37.0,37.0,29.86,SE,135,18.0,23.0,100,0.00,,,0.00,TxWx,2013-01-29 19:06:00,
2013-01-29 14:07:00,30.0,30.0,29.95,SSE,157,1.0,1.0,100,0.00,,,0.00,TxWx,2013-01-29 19:07:00,
2013-01-29 14:12:00,31.0,31.0,29.94,SE,135,2.0,2.0,100,0.00,,,0.00,TxWx,2013-01-29 19:12:00,
2013-01-29 14:17:00,31.0,31.0,29.94,SE,135,1.0,2.0,100,0.00,,,0.00,TxWx,2013-01-29 19:17:00,
2013-01-29 14:22:00,31.0,31.0,29.95,SE,135,5.0,5.0,100,0.00,,,0.00,TxWx,2013-01-29 19:22:00,
2013-01-29 14:26:00,37.0,37.0,29.84,ESE,112,23.0,24.0,100,0.00,,,0.00,TxWx,2013-01-29 19:26:00,
2013-01-29 14:27:00,31.0,31.0,29.94,SE,135,3.0,3.0,100,0.00,,,0.00,TxWx,2013-01-29 19:27:00,
2013-01-29 14:28:00,37.0,37.0,29.84,ESE,112,20.0,22.0,100,0.00,,,0.00,TxWx,2013-01-29 19:28:00,
2013-01-29 14:29:00,37.0,37.0,29.84,ESE,112,30.0,30.0,100,0.00,,,0.00,TxWx,2013-01-29 19:29:00,
2013-01-29 14:30:00,37.0,37.0,29.84,ESE,112,14.0,21.0,100,0.00,,,0.00,TxWx,2013-01-29 19:30:00,
2013-01-29 14:31:00,37.0,37.0,29.84,ESE,112,23.0,23.0,100,0.00,,,0.00,TxWx,2013-01-29 19:31:00,
2013-01-29 14:32:00,31.0,31.0,29.94,ESE,112,4.0,5.0,100,0.60,,,0.01,TxWx,2013-01-29 19:32:00,
2013-01-29 14:33:00,37.0,37.0,29.84,SSE,157,26.0,26.0,100,0.00,,,0.00,TxWx,2013-01-29 19:33:00,
2013-01-29 14:34:00,37.0,37.0,29.83,SE,135,24.0,30.0,100,0.00,,,0.00,TxWx,2013-01-29 19:34:00,
2013-01-29 14:37:00,31.0,31.0,29.94,ESE,112,4.0,5.0,100,0.60,,,0.01,TxWx,2013-01-29 19:37:00,
2013-01-29 14:42:00,31.0,31.0,29.93,ESE,112,7.0,8.0,100,0.00,,,0.01,TxWx,2013-01-29 19:42:00,
2013-01-29 14:48:00,31.0,31.0,29.94,ESE,112,5.0,6.0,100,0.00,,,0.02,TxWx,2013-01-29 19:48:00,
2013-01-29 14:53:00,31.0,31.0,29.94,SE,135,3.0,4.0,100,0.60,,,0.02,TxWx,2013-01-29 19:53:00,
2013-01-29 14:58:00,32.0,32.0,29.95,SSE,157,3.0,3.0,100,0.60,,,0.02,TxWx,2013-01-29 19:58:00,
2013-01-29 15:03:00,31.0,31.0,29.95,SSE,157,5.0,5.0,100,0.00,,,0.02,TxWx,2013-01-29 20:03:00,
2013-01-29 15:08:00,31.0,31.0,29.95,SE,135,3.0,4.0,100,0.00,,,0.02,TxWx,2013-01-29 20:08:00,
2013-01-29 15:13:00,31.0,31.0,29.96,South,180,2.0,3.0,100,0.00,,,0.03,TxWx,2013-01-29 20:13:00,
2013-01-29 15:18:00,31.0,31.0,29.96,SSW,202,3.0,3.0,100,0.00,,,0.03,TxWx,2013-01-29 20:18:00,
2013-01-29 15:23:00,31.0,31.0,29.96,SSE,157,4.0,4.0,100,0.60,,,0.03,TxWx,2013-01-29 20:23:00,
2013-01-29 15:28:00,31.0,31.0,29.94,ESE,112,5.0,5.0,100,0.60,,,0.03,TxWx,2013-01-29 20:28:00,
2013-01-29 15:33:00,32.0,32.0,29.94,East,90,6.0,8.0,100,0.00,,,0.03,TxWx,2013-01-29 20:33:00,
2013-01-29 15:38:00,32.0,32.0,29.93,East,90,7.0,8.0,100,0.00,,,0.03,TxWx,2013-01-29 20:38:00,
2013-01-29 15:43:00,32.0,32.0,29.93,ESE,112,6.0,7.0,100,0.00,,,0.03,TxWx,2013-01-29 20:43:00,
2013-01-29 15:49:00,32.0,32.0,29.92,ESE,112,6.0,6.0,100,0.00,,,0.03,TxWx,2013-01-29 20:49:00,
2013-01-29 15:54:00,32.0,32.0,29.92,ESE,112,6.0,6.0,100,0.00,,,0.03,TxWx,2013-01-29 20:54:00,
2013-01-29 15:59:00,32.0,32.0,29.91,East,90,6.0,8.0,100,0.00,,,0.03,TxWx,2013-01-29 20:59:00,
2013-01-29 16:04:00,32.0,32.0,29.91,East,90,6.0,6.0,100,0.00,,,0.04,TxWx,2013-01-29 21:04:00,
2013-01-29 16:06:00,38.0,38.0,29.80,SE,135,30.0,30.0,100,0.00,,,0.00,TxWx,2013-01-29 21:06:00,
2013-01-29 16:07:00,38.0,38.0,29.80,SE,135,18.0,19.0,100,0.00,,,0.00,TxWx,2013-01-29 21:07:00,
2013-01-29 16:08:00,38.0,38.0,29.80,ESE,112,18.0,30.0,100,0.00,,,0.00,TxWx,2013-01-29 21:08:00,
2013-01-29 16:09:00,33.0,33.0,29.90,ESE,112,8.0,10.0,100,0.00,,,0.04,TxWx,2013-01-29 21:09:00,
2013-01-29 16:10:00,38.0,38.0,29.81,SE,135,18.0,21.0,100,0.00,,,0.00,TxWx,2013-01-29 21:10:00,
2013-01-29 16:11:00,38.0,38.0,29.81,ESE,112,23.0,27.0,100,0.00,,,0.00,TxWx,2013-01-29 21:11:00,
2013-01-29 16:14:00,34.0,34.0,29.90,ESE,112,10.0,12.0,100,0.60,,,0.04,TxWx,2013-01-29 21:14:00,
2013-01-29 16:19:00,34.0,34.0,29.91,South,180,1.0,3.0,100,0.60,,,0.04,TxWx,2013-01-29 21:19:00,
2013-01-29 16:24:00,34.0,34.0,29.91,SE,135,3.0,3.0,100,0.00,,,0.05,TxWx,2013-01-29 21:24:00,
2013-01-29 16:29:00,34.0,34.0,29.92,ESE,112,3.0,4.0,100,0.00,,,0.05,TxWx,2013-01-29 21:29:00,
2013-01-29 16:34:00,34.0,34.0,29.92,SSE,157,0.0,0.0,100,0.60,,,0.05,TxWx,2013-01-29 21:34:00,
2013-01-29 16:39:00,33.0,33.0,29.92,South,180,0.0,1.0,100,0.60,,,0.05,TxWx,2013-01-29 21:39:00,
2013-01-29 16:44:00,33.0,33.0,29.92,SE,135,3.0,3.0,100,0.00,,,0.05,TxWx,2013-01-29 21:44:00,
2013-01-29 16:49:00,34.0,34.0,29.92,ESE,112,2.0,3.0,100,0.00,,,0.05,TxWx,2013-01-29 21:49:00,
2013-01-29 16:54:00,34.0,34.0,29.92,SE,135,7.0,9.0,100,0.00,,,0.06,TxWx,2013-01-29 21:54:00,
2013-01-29 16:59:00,34.0,34.0,29.91,SE,135,8.0,8.0,100,0.00,,,0.06,TxWx,2013-01-29 21:59:00,
2013-01-29 17:05:00,34.0,34.0,29.92,ESE,112,5.0,6.0,100,0.60,,,0.06,TxWx,2013-01-29 22:05:00,
2013-01-29 17:10:00,34.0,34.0,29.92,ESE,112,5.0,5.0,100,0.60,,,0.06,TxWx,2013-01-29 22:10:00,
2013-01-29 17:15:00,34.0,34.0,29.91,East,90,6.0,6.0,100,0.00,,,0.07,TxWx,2013-01-29 22:15:00,
2013-01-29 17:20:00,34.0,34.0,29.90,East,90,3.0,5.0,100,0.60,,,0.07,TxWx,2013-01-29 22:20:00,
2013-01-29 17:24:00,40.0,40.0,29.75,ESE,112,19.0,27.0,100,0.00,,,0.00,TxWx,2013-01-29 22:24:00,
2013-01-29 17:25:00,34.0,34.0,29.90,ESE,112,10.0,10.0,100,0.60,,,0.07,TxWx,2013-01-29 22:25:00,
2013-01-29 17:26:00,40.0,40.0,29.75,SE,135,21.0,21.0,100,0.00,,,0.00,TxWx,2013-01-29 22:26:00,
2013-01-29 17:30:00,34.0,34.0,29.89,East,90,6.0,9.0,100,0.60,,,0.08,TxWx,2013-01-29 22:30:00,
2013-01-29 17:35:00,35.0,35.0,29.88,ESE,112,9.0,11.0,100,0.60,,,0.08,TxWx,2013-01-29 22:35:00,
2013-01-29 17:40:00,35.0,35.0,29.89,SE,135,8.0,9.0,100,0.60,,,0.09,TxWx,2013-01-29 22:40:00,
2013-01-29 17:45:00,35.0,35.0,29.90,ESE,112,10.0,10.0,100,0.60,,,0.09,TxWx,2013-01-29 22:45:00,
2013-01-29 17:50:00,35.0,35.0,29.89,ESE,112,8.0,8.0,100,0.00,,,0.09,TxWx,2013-01-29 22:50:00,
2013-01-29 17:55:00,35.0,35.0,29.89,ESE,112,10.0,11.0,100,0.00,,,0.10,TxWx,2013-01-29 22:55:00,
2013-01-29 18:00:00,35.0,35.0,29.90,SE,135,8.0,8.0,100,0.60,,,0.10,TxWx,2013-01-29 23:00:00,
2013-01-29 18:05:00,35.0,35.0,29.90,SE,135,6.0,7.0,100,0.60,,,0.10,TxWx,2013-01-29 23:05:00,
2013-01-29 18:10:00,35.0,35.0,29.90,SE,135,11.0,12.0,100,0.60,,,0.11,TxWx,2013-01-29 23:10:00,
2013-01-29 18:16:00,35.0,35.0,29.90,SE,135,8.0,9.0,100,0.60,,,0.11,TxWx,2013-01-29 23:16:00,
2013-01-29 18:21:00,35.0,35.0,29.90,SE,135,9.0,10.0,100,0.00,,,0.11,TxWx,2013-01-29 23:21:00,
2013-01-29 18:26:00,36.0,36.0,29.90,SE,135,6.0,10.0,100,0.00,,,0.11,TxWx,2013-01-29 23:26:00,
2013-01-29 18:31:00,36.0,36.0,29.90,SE,135,6.0,9.0,100,0.60,,,0.12,TxWx,2013-01-29 23:31:00,
2013-01-29 18:36:00,36.0,36.0,29.91,SE,135,10.0,10.0,100,0.60,,,0.12,TxWx,2013-01-29 23:36:00,
2013-01-29 18:41:00,36.0,36.0,29.91,SE,135,11.0,14.0,100,0.00,,,0.12,TxWx,2013-01-29 23:41:00,
2013-01-29 18:46:00,37.0,37.0,29.91,SE,135,13.0,13.0,100,0.00,,,0.13,TxWx,2013-01-29 23:46:00,
2013-01-29 18:51:00,36.0,36.0,29.91,SE,135,8.0,8.0,100,0.60,,,0.14,TxWx,2013-01-29 23:51:00,
2013-01-29 18:56:00,36.0,36.0,29.92,SE,135,10.0,13.0,100,0.60,,,0.14,TxWx,2013-01-29 23:56:00,
2013-01-29 19:01:00,36.0,36.0,29.92,ESE,112,13.0,13.0,100,0.60,,,0.16,TxWx,2013-01-30 00:01:00,
2013-01-29 19:07:00,37.0,37.0,29.92,SE,135,15.0,17.0,100,0.60,,,0.17,TxWx,2013-01-30 00:07:00,
2013-01-29 19:12:00,36.0,36.0,29.92,ESE,112,10.0,15.0,100,0.60,,,0.18,TxWx,2013-01-30 00:12:00,
2013-01-29 19:17:00,36.0,36.0,29.91,SE,135,8.0,14.0,100,0.60,,,0.19,TxWx,2013-01-30 00:17:00,
2013-01-29 19:22:00,36.0,36.0,29.90,ESE,112,19.0,21.0,100,0.60,,,0.20,TxWx,2013-01-30 00:22:00,
2013-01-29 19:27:00,36.0,36.0,29.89,ESE,112,11.0,24.0,100,0.60,,,0.21,TxWx,2013-01-30 00:27:00,
2013-01-29 19:32:00,36.0,36.0,29.89,SE,135,18.0,23.0,100,0.60,,,0.22,TxWx,2013-01-30 00:32:00,
2013-01-29 19:37:00,36.0,36.0,29.89,SE,135,16.0,17.0,100,0.60,,,0.22,TxWx,2013-01-30 00:37:00,
2013-01-29 19:42:00,36.0,36.0,29.88,ESE,112,22.0,24.0,100,0.60,,,0.23,TxWx,2013-01-30 00:42:00,
2013-01-29 19:47:00,36.0,36.0,29.88,ESE,112,20.0,24.0,100,0.60,,,0.23,TxWx,2013-01-30 00:47:00,
2013-01-29 19:52:00,36.0,36.0,29.88,SSE,157,16.0,21.0,100,0.60,,,0.23,TxWx,2013-01-30 00:52:00,
2013-01-29 19:57:00,36.0,36.0,29.88,ESE,112,25.0,29.0,100,0.60,,,0.23,TxWx,2013-01-30 00:57:00,
2013-01-29 20:02:00,36.0,36.0,29.88,ESE,112,20.0,26.0,100,0.00,,,0.23,TxWx,2013-01-30 01:02:00,
2013-01-29 20:07:00,36.0,36.0,29.88,ESE,112,29.0,29.0,100,0.00,,,0.23,TxWx,2013-01-30 01:07:00,
2013-01-29 20:13:00,36.0,36.0,29.87,ESE,112,26.0,26.0,100,0.00,,,0.23,TxWx,2013-01-30 01:13:00,
2013-01-29 20:18:00,37.0,37.0,29.88,ESE,112,29.0,32.0,100,0.00,,,0.23,TxWx,2013-01-30 01:18:00,
2013-01-29 20:23:00,36.0,36.0,29.87,SE,135,24.0,31.0,100,0.00,,,0.23,TxWx,2013-01-30 01:23:00,
2013-01-29 20:28:00,36.0,36.0,29.86,SSE,157,26.0,27.0,100,0.00,,,0.23,TxWx,2013-01-30 01:28:00,
2013-01-29 20:33:00,36.0,36.0,29.87,SE,135,21.0,22.0,100,0.00,,,0.23,TxWx,2013-01-30 01:33:00,
2013-01-29 20:38:00,36.0,36.0,29.87,ESE,112,24.0,24.0,100,0.00,,,0.23,TxWx,2013-01-30 01:38:00,
2013-01-29 20:41:00,42.0,42.0,29.67,SSE,157,18.0,19.0,100,0.00,,,0.00,TxWx,2013-01-30 01:41:00,
2013-01-29 20:42:00,42.0,42.0,29.67,ESE,112,18.0,20.0,100,0.00,,,0.00,TxWx,2013-01-30 01:42:00,
2013-01-29 20:43:00,36.0,36.0,29.87,ESE,112,27.0,27.0,100,0.00,,,0.23,TxWx,2013-01-30 01:43:00,
2013-01-29 20:44:00,43.0,43.0,29.67,SE,135,18.0,22.0,100,0.00,,,0.00,TxWx,2013-01-30 01:44:00,
2013-01-29 20:45:00,43.0,43.0,29.67,ESE,112,14.0,19.0,100,0.00,,,0.00,TxWx,2013-01-30 01:45:00,
2013-01-29 20:46:00,43.0,43.0,29.67,ESE,112,18.0,18.0,100,0.00,,,0.00,TxWx,2013-01-30 01:46:00,
2013-01-29 20:48:00,36.0,36.0,29.87,SE,135,16.0,23.0,100,0.00,,,0.23,TxWx,2013-01-30 01:48:00,
2013-01-29 20:53:00,36.0,36.0,29.87,ESE,112,21.0,21.0,100,0.00,,,0.23,TxWx,2013-01-30 01:53:00,
2013-01-29 20:58:00,37.0,37.0,29.87,ESE,112,21.0,28.0,100,0.00,,,0.24,TxWx,2013-01-30 01:58:00,
2013-01-29 21:03:00,37.0,37.0,29.87,SE,135,17.0,29.0,100,0.60,,,0.24,TxWx,2013-01-30 02:03:00,
2013-01-29 21:08:00,36.0,36.0,29.87,ESE,112,26.0,30.0,100,0.60,,,0.25,TxWx,2013-01-30 02:08:00,
2013-01-29 21:14:00,36.0,36.0,29.87,ESE,112,23.0,24.0,100,0.60,,,0.25,TxWx,2013-01-30 02:14:00,
2013-01-29 21:19:00,36.0,36.0,29.86,SE,135,18.0,20.0,100,0.60,,,0.25,TxWx,2013-01-30 02:19:00,
2013-01-29 21:24:00,36.0,36.0,29.87,SE,135,19.0,21.0,100,0.00,,,0.25,TxWx,2013-01-30 02:24:00,
2013-01-29 21:29:00,36.0,36.0,29.86,ESE,112,23.0,23.0,100,0.00,,,0.25,TxWx,2013-01-30 02:29:00,
2013-01-29 21:34:00,36.0,36.0,29.87,SE,135,19.0,19.0,100,0.00,,,0.25,TxWx,2013-01-30 02:34:00,
2013-01-29 21:39:00,36.0,36.0,29.86,SE,135,21.0,21.0,100,0.00,,,0.25,TxWx,2013-01-30 02:39:00,
2013-01-29 21:44:00,36.0,36.0,29.87,SE,135,29.0,29.0,100,0.00,,,0.25,TxWx,2013-01-30 02:44:00,
2013-01-29 21:49:00,36.0,36.0,29.86,SE,135,12.0,23.0,100,0.00,,,0.25,TxWx,2013-01-30 02:49:00,
2013-01-29 21:54:00,36.0,36.0,29.86,SE,135,16.0,23.0,100,0.00,,,0.25,TxWx,2013-01-30 02:54:00,
2013-01-29 21:59:00,36.0,36.0,29.86,SE,135,27.0,31.0,100,0.00,,,0.25,TxWx,2013-01-30 02:59:00,
2013-01-29 22:04:00,36.0,36.0,29.86,SSE,157,24.0,24.0,100,0.00,,,0.25,TxWx,2013-01-30 03:04:00,
2013-01-29 22:09:00,36.0,36.0,29.85,ESE,112,22.0,27.0,100,0.00,,,0.27,TxWx,2013-01-30 03:09:00,
2013-01-29 22:15:00,36.0,36.0,29.85,SE,135,18.0,19.0,100,0.60,,,0.29,TxWx,2013-01-30 03:15:00,
2013-01-29 22:20:00,36.0,36.0,29.85,ESE,112,24.0,30.0,100,0.60,,,0.29,TxWx,2013-01-30 03:20:00,
2013-01-29 22:25:00,36.0,36.0,29.85,SE,135,21.0,23.0,100,0.60,,,0.30,TxWx,2013-01-30 03:25:00,
2013-01-29 22:30:00,36.0,36.0,29.86,SE,135,26.0,26.0,100,0.60,,,0.33,TxWx,2013-01-30 03:30:00,
2013-01-29 22:35:00,36.0,36.0,29.86,ESE,112,27.0,27.0,100,0.60,,,0.34,TxWx,2013-01-30 03:35:00,
2013-01-29 22:40:00,36.0,36.0,29.85,ESE,112,16.0,20.0,100,0.60,,,0.35,TxWx,2013-01-30 03:40:00,
2013-01-29 22:45:00,36.0,36.0,29.85,ESE,112,16.0,23.0,100,0.60,,,0.35,TxWx,2013-01-30 03:45:00,
2013-01-29 22:50:00,36.0,36.0,29.86,ESE,112,27.0,27.0,100,0.00,,,0.35,TxWx,2013-01-30 03:50:00,
2013-01-29 22:55:00,37.0,37.0,29.86,ESE,112,15.0,19.0,100,0.00,,,0.36,TxWx,2013-01-30 03:55:00,
2013-01-29 23:00:00,36.0,36.0,29.86,ESE,112,26.0,26.0,100,0.60,,,0.36,TxWx,2013-01-30 04:00:00,
2013-01-29 23:05:00,36.0,36.0,29.86,ESE,112,16.0,19.0,100,0.60,,,0.36,TxWx,2013-01-30 04:05:00,
2013-01-29 23:10:00,37.0,37.0,29.86,SE,135,21.0,23.0,100,0.00,,,0.36,TxWx,2013-01-30 04:10:00,
2013-01-29 23:15:00,37.0,37.0,29.86,ESE,112,24.0,26.0,100,0.00,,,0.36,TxWx,2013-01-30 04:15:00,
2013-01-29 23:21:00,37.0,37.0,29.86,SE,135,19.0,27.0,100,0.00,,,0.36,TxWx,2013-01-30 04:21:00,
2013-01-29 23:26:00,37.0,37.0,29.86,SE,135,16.0,23.0,100,0.00,,,0.36,TxWx,2013-01-30 04:26:00,
2013-01-29 23:31:00,37.0,37.0,29.86,ESE,112,21.0,28.0,100,0.00,,,0.36,TxWx,2013-01-30 04:31:00,
2013-01-29 23:36:00,37.0,37.0,29.86,SE,135,30.0,30.0,100,0.00,,,0.36,TxWx,2013-01-30 04:36:00,
2013-01-29 23:41:00,37.0,37.0,29.86,ESE,112,13.0,18.0,100,0.00,,,0.36,TxWx,2013-01-30 04:41:00,
2013-01-29 23:46:00,37.0,37.0,29.86,ESE,112,20.0,26.0,100,0.00,,,0.36,TxWx,2013-01-30 04:46:00,
2013-01-29 23:51:00,37.0,37.0,29.86,SE,135,15.0,19.0,100,0.00,,,0.36,TxWx,2013-01-30 04:51:00,
2013-01-29 23:56:00,37.0,37.0,29.86,ESE,112,23.0,27.0,100,0.00,,,0.36,TxWx,2013-01-30 04:56:00,